When you browse on this site, cookies collect data to enhance your experience and personalize the content and advertising you see.
Visit our Privacy Policy to learn more. By continuing to use the site, you agree to this use of cookies and data.
  • En España
  • Lista de países
  • Para 7 días
  • Temperatura del agua
  • Mapa Satelital
  • El tiempo en el mapa
  • Informadores
  • user-avatar
    Iniciar sesión

    Tiempo cada hora Kileshino

    Hoy, 17 Diciembre, Lunes

    Tiempo Temperatura Precipitaciones Viento Presión Humedad
    00:00 -13°C° 0 mm 2 mps 757 mmHg 83%
    01:00 -13°C° 0 mm 2 mps 756 mmHg 85%
    02:00 -14°C° 0 mm 2 mps 756 mmHg 87%
    03:00 -14°C° 0 mm 2 mps 756 mmHg 88%
    04:00 -14°C° 0 mm 2 mps 756 mmHg 89%
    05:00 -14°C° 0 mm 2 mps 756 mmHg 90%
    06:00 -14°C° 0 mm 2 mps 756 mmHg 89%
    07:00 -14°C° 0 mm 2 mps 756 mmHg 88%
    08:00 -14°C° 0 mm 2 mps 755 mmHg 88%
    09:00 -14°C° 0 mm 3 mps 755 mmHg 85%
    10:00 -14°C° 0 mm 3 mps 755 mmHg 83%
    11:00 -13°C° 0 mm 3 mps 755 mmHg 81%
    12:00 -13°C° 0 mm 3 mps 755 mmHg 82%
    13:00 -13°C° 0 mm 3 mps 755 mmHg 82%
    14:00 -10°C° 0 mm 2 mps 755 mmHg 83%
    15:00 -12°C° 0 mm 2 mps 755 mmHg 84%
    16:00 -13°C° 0 mm 2 mps 755 mmHg 86%
    17:00 -13°C° 0 mm 2 mps 755 mmHg 87%
    18:00 -13°C° 0 mm 2 mps 755 mmHg 87%
    19:00 -14°C° 0 mm 2 mps 755 mmHg 87%
    20:00 -14°C° 0 mm 2 mps 755 mmHg 87%
    21:00 -14°C° 0 mm 2 mps 755 mmHg 87%
    22:00 -14°C° 0 mm 2 mps 755 mmHg 86%
    23:00 -14°C° 0 mm 2 mps 755 mmHg 86%

    Mañana, 18 Diciembre, Martes

    Tiempo Temperatura Precipitaciones Viento Presión Humedad
    00:00 -15°C° 0 mm 2 mps 755 mmHg 86%
    01:00 -15°C° 0 mm 2 mps 755 mmHg 86%
    02:00 -15°C° 0 mm 2 mps 755 mmHg 86%
    03:00 -15°C° 0 mm 2 mps 755 mmHg 87%
    04:00 -15°C° 0 mm 2 mps 755 mmHg 88%
    05:00 -15°C° 0 mm 2 mps 755 mmHg 88%
    06:00 -15°C° 0 mm 2 mps 755 mmHg 89%
    07:00 -16°C° 0 mm 2 mps 755 mmHg 90%
    08:00 -17°C° 0 mm 3 mps 755 mmHg 91%
    09:00 -16°C° 0 mm 3 mps 755 mmHg 90%
    10:00 -16°C° 0 mm 3 mps 755 mmHg 89%
    11:00 -15°C° 0 mm 3 mps 755 mmHg 88%
    12:00 -14°C° 0 mm 2 mps 755 mmHg 88%
    13:00 -13°C° 0 mm 2 mps 755 mmHg 88%
    14:00 -13°C° 0 mm 2 mps 755 mmHg 88%
    15:00 -14°C° 0 mm 2 mps 755 mmHg 90%
    16:00 -14°C° 0 mm 2 mps 755 mmHg 92%
    17:00 -14°C° 0 mm 2 mps 755 mmHg 94%
    18:00 -14°C° 0 mm 2 mps 755 mmHg 94%
    19:00 -14°C° 0 mm 2 mps 755 mmHg 95%
    20:00 -14°C° 0 mm 2 mps 755 mmHg 95%
    21:00 -14°C° 0 mm 2 mps 755 mmHg 94%
    22:00 -14°C° 0 mm 2 mps 755 mmHg 94%
    23:00 -14°C° 0 mm 2 mps 755 mmHg 93%

    Pasado mañana, 19 Diciembre, Miércoles

    Tiempo Temperatura Precipitaciones Viento Presión Humedad
    00:00 -14°C° 0 mm 2 mps 755 mmHg 93%
    01:00 -14°C° 0 mm 2 mps 755 mmHg 93%
    02:00 -14°C° 0 mm 2 mps 755 mmHg 93%
    03:00 -14°C° 0 mm 2 mps 755 mmHg 94%
    04:00 -14°C° 0 mm 2 mps 755 mmHg 94%
    05:00 -14°C° 0 mm 2 mps 755 mmHg 94%
    06:00 -14°C° 0 mm 2 mps 755 mmHg 94%
    07:00 -14°C° 0 mm 2 mps 755 mmHg 94%
    08:00 -14°C° 0 mm 2 mps 755 mmHg 94%
    09:00 -13°C° 0 mm 2 mps 755 mmHg 92%
    10:00 -13°C° 0 mm 2 mps 756 mmHg 90%
    11:00 -12°C° 0 mm 2 mps 756 mmHg 89%
    12:00 -12°C° 0 mm 2 mps 756 mmHg 88%
    13:00 -12°C° 0 mm 2 mps 756 mmHg 88%
    14:00 -10°C° 0 mm 2 mps 755 mmHg 88%
    15:00 -12°C° 0 mm 2 mps 755 mmHg 90%
    16:00 -12°C° 0 mm 2 mps 755 mmHg 92%
    17:00 -11°C° 0 mm 1 mps 756 mmHg 94%
    18:00 -11°C° 0 mm 1 mps 756 mmHg 94%
    19:00 -11°C° 0 mm 1 mps 756 mmHg 94%
    20:00 -11°C° 0 mm 1 mps 756 mmHg 93%
    21:00 -11°C° 0 mm 1 mps 756 mmHg 94%
    22:00 -11°C° 0 mm 1 mps 756 mmHg 95%
    23:00 -11°C° 0 mm 1 mps 756 mmHg 96%

    20 Diciembre, Jueves

    Tiempo Temperatura Precipitaciones Viento Presión Humedad
    00:00 -11°C° 0 mm 1 mps 756 mmHg 95%
    01:00 -11°C° 0 mm 1 mps 756 mmHg 94%
    02:00 -11°C° 0 mm 1 mps 756 mmHg 94%
    03:00 -11°C° 0 mm 1 mps 756 mmHg 94%
    04:00 -11°C° 0 mm 1 mps 756 mmHg 94%
    05:00 -12°C° 0 mm 1 mps 756 mmHg 95%
    06:00 -12°C° 0 mm 1 mps 756 mmHg 95%
    07:00 -11°C° 0 mm 1 mps 756 mmHg 94%
    08:00 -11°C° 0 mm 1 mps 756 mmHg 94%
    09:00 -11°C° 0 mm 1 mps 756 mmHg 92%
    10:00 -11°C° 0 mm 1 mps 756 mmHg 90%
    11:00 -10°C° 0 mm 1 mps 757 mmHg 88%
    12:00 -10°C° 0 mm 1 mps 756 mmHg 88%
    13:00 -10°C° 0 mm 1 mps 756 mmHg 88%
    14:00 -10°C° 0 mm 1 mps 756 mmHg 88%
    15:00 -11°C° 0 mm 1 mps 756 mmHg 90%
    16:00 -11°C° 0 mm 1 mps 756 mmHg 93%
    17:00 -12°C° 0 mm 1 mps 756 mmHg 95%
    18:00 -12°C° 0 mm 1 mps 756 mmHg 95%
    19:00 -12°C° 0 mm 1 mps 756 mmHg 96%
    20:00 -13°C° 0 mm 1 mps 755 mmHg 96%
    21:00 -13°C° 0 mm 1 mps 755 mmHg 96%
    22:00 -13°C° 0 mm 1 mps 755 mmHg 96%
    23:00 -13°C° 0 mm 1 mps 755 mmHg 97%

    21 Diciembre, Viernes

    Tiempo Temperatura Precipitaciones Viento Presión Humedad
    00:00 -13°C° 0 mm 1 mps 755 mmHg 97%
    01:00 -13°C° 0 mm 1 mps 755 mmHg 97%
    02:00 -13°C° 0 mm 1 mps 755 mmHg 97%
    03:00 -13°C° 0 mm 1 mps 755 mmHg 97%
    04:00 -13°C° 0 mm 1 mps 754 mmHg 96%
    05:00 -13°C° 0 mm 1 mps 754 mmHg 96%
    06:00 -13°C° 0 mm 1 mps 754 mmHg 96%
    07:00 -13°C° 0 mm 1 mps 754 mmHg 96%
    08:00 -13°C° 0 mm 1 mps 754 mmHg 96%
    09:00 -15°C° 0 mm 2 mps 754 mmHg 95%
    10:00 -14°C° 0 mm 2 mps 754 mmHg 93%
    11:00 -14°C° 0 mm 2 mps 754 mmHg 92%
    12:00 -14°C° 0 mm 2 mps 754 mmHg 91%
    13:00 -11°C° 0 mm 1 mps 753 mmHg 91%
    14:00 -11°C° 0 mm 1 mps 753 mmHg 91%
    15:00 -12°C° 0 mm 1 mps 753 mmHg 93%
    16:00 -12°C° 0 mm 1 mps 753 mmHg 95%
    17:00 -13°C° 0 mm 1 mps 753 mmHg 96%
    18:00 -13°C° 0 mm 1 mps 753 mmHg 96%
    19:00 -15°C° 0 mm 2 mps 753 mmHg 96%
    20:00 -15°C° 0 mm 2 mps 752 mmHg 96%
    21:00 -15°C° 0 mm 2 mps 752 mmHg 96%
    22:00 -15°C° 0 mm 2 mps 753 mmHg 95%
    23:00 -15°C° 0 mm 2 mps 753 mmHg 95%

    22 Diciembre, Sábado

    Tiempo Temperatura Precipitaciones Viento Presión Humedad
    00:00 -14°C° 0 mm 2 mps 753 mmHg 95%
    01:00 -14°C° 0 mm 2 mps 752 mmHg 94%
    02:00 -14°C° 0 mm 2 mps 752 mmHg 94%
    03:00 -14°C° 0 mm 2 mps 752 mmHg 94%
    04:00 -14°C° 0 mm 2 mps 752 mmHg 93%
    05:00 -15°C° 0 mm 3 mps 752 mmHg 93%
    06:00 -15°C° 0 mm 3 mps 752 mmHg 92%
    07:00 -15°C° 0 mm 3 mps 753 mmHg 92%
    08:00 -15°C° 0 mm 3 mps 753 mmHg 91%
    09:00 -15°C° 0 mm 3 mps 753 mmHg 90%
    10:00 -15°C° 0 mm 3 mps 753 mmHg 89%
    11:00 -14°C° 0 mm 3 mps 753 mmHg 87%
    12:00 -14°C° 0 mm 3 mps 753 mmHg 87%
    13:00 -14°C° 0 mm 3 mps 753 mmHg 88%
    14:00 -14°C° 0 mm 3 mps 753 mmHg 88%
    15:00 -15°C° 0 mm 3 mps 753 mmHg 89%
    16:00 -15°C° 0 mm 3 mps 753 mmHg 90%
    17:00 -17°C° 0 mm 4 mps 753 mmHg 91%
    18:00 -17°C° 0 mm 4 mps 753 mmHg 91%
    19:00 -17°C° 0 mm 4 mps 753 mmHg 90%
    20:00 -18°C° 0 mm 4 mps 753 mmHg 90%
    21:00 -18°C° 0 mm 4 mps 753 mmHg 90%
    22:00 -18°C° 0 mm 4 mps 753 mmHg 90%
    23:00 -18°C° 0 mm 4 mps 754 mmHg 89%
    Mostrar más